QPF
0.00 0.00 0.02 0.00 0.00 0.00 0.01 0.00 0.00 0.00 0.00 0.00 0.00 0.00 0.00 0.00 0.00 0.00 0.00 0.00 0.00 0.00 0.00 0.01 0.00 0.00 0.00 0.02 0.01 0.00 0.00 0.00 0.01 0.01 0.08 0.12 0.19 0.26 0.20 0.15 0.12 0.04 0.07 0.14 0.12 0.06 0.01 0.15 0.19
0.00 0.00 0.02 0.00 0.00 0.00 0.02 0.00 0.01 0.00 0.00 0.00 0.00 0.00 0.00 0.00 0.00 0.00 0.00 0.00 0.00 0.00 0.00 0.00 0.00 0.00 0.01 0.02 0.00 0.00 0.00 0.01 0.00 0.02 0.03 0.09 0.23 0.24 0.17 0.09 0.08 0.05 0.06 0.12 0.08 0.05 0.06 0.05 0.00
0.00 0.01 0.01 0.00 0.00 0.00 0.00 0.02 0.01 0.00 0.00 0.00 0.00 0.00 0.00 0.00 0.00 0.00 0.00 0.00 0.00 0.00 0.00 0.00 0.00 0.00 0.01 0.01 0.00 0.00 0.02 0.00 0.00 0.00 0.02 0.11 0.13 0.13 0.05 0.01 0.02 0.02 0.01 0.07 0.14 0.09 0.03 0.00 0.00
0.00 0.00 0.00 0.00 0.00 0.00 0.00 0.00 0.00 0.00 0.00 0.00 0.00 0.00 0.00 0.00 0.00 0.00 0.00 0.00 0.00 0.00 0.00 0.00 0.00 0.00 0.00 0.00 0.00 0.00 0.03 0.00 0.00 0.01 0.01 0.04 0.02 0.00 0.00 0.00 0.00 0.00 0.03 0.04 0.00 0.00 0.01 0.01 0.00
0.00 0.00 0.00 0.00 0.00 0.00 0.00 0.00 0.01 0.01 0.00 0.00 0.00 0.00 0.00 0.00 0.00 0.00 0.00 0.00 0.00 0.00 0.00 0.00 0.01 0.00 0.00 0.00 0.00 0.00 0.00 0.00 0.01 0.04 0.04 0.09 0.06 0.03 0.03 0.03 0.02 0.00 0.01 0.00 0.01 0.00 0.01 0.03 0.02
0.00 0.00 0.00 0.00 0.00 0.00 0.00 0.00 0.00 0.01 0.00 0.00 0.00 0.00 0.00 0.00 0.00 0.00 0.00 0.00 0.00 0.00 0.00 0.00 0.01 0.00 0.01 0.00 0.00 0.00 0.00 0.00 0.02 0.03 0.07 0.11 0.13 0.10 0.06 0.06 0.04 0.00 0.00 0.00 0.01 0.01 0.00 0.00 0.00
0.00 0.00 0.00 0.00 0.00 0.00 0.00 0.00 0.00 0.01 0.00 0.00 0.00 0.00 0.00 0.00 0.00 0.00 0.00 0.00 0.00 0.00 0.00 0.00 0.00 0.00 0.00 0.00 0.00 0.00 0.00 0.00 0.00 0.01 0.02 0.02 0.02 0.04 0.04 0.05 0.04 0.02 0.00 0.00 0.00 0.00 0.00 0.00 0.00
0.00 0.00 0.00 0.00 0.00 0.00 0.00 0.00 0.00 0.01 0.00 0.00 0.00 0.00 0.00 0.00 0.00 0.00 0.00 0.00 0.00 0.00 0.00 0.00 0.00 0.00 0.00 0.00 0.00 0.00 0.00 0.01 0.01 0.02 0.03 0.01 0.01 0.01 0.01 0.04 0.04 0.01 0.00 0.00 0.00 0.00 0.00 0.00 0.00
0.00 0.00 0.00 0.00 0.00 0.00 0.00 0.00 0.00 0.00 0.01 0.00 0.00 0.00 0.00 0.00 0.00 0.00 0.00 0.00 0.00 0.00 0.00 0.00 0.00 0.00 0.00 0.00 0.00 0.00 0.01 0.02 0.04 0.03 0.01 0.00 0.00 0.02 0.03 0.02 0.00 0.00 0.00 0.00 0.00 0.00 0.00 0.00 0.00
0.00 0.00 0.00 0.00 0.00 0.00 0.00 0.00 0.00 0.00 0.00 0.00 0.00 0.00 0.00 0.00 0.00 0.00 0.00 0.00 0.00 0.00 0.00 0.00 0.00 0.00 0.00 0.00 0.00 0.00 0.00 0.00 0.00 0.00 0.01 0.00 0.00 0.00 0.00 0.00 0.00 0.00 0.00 0.00 0.00 0.00 0.00 0.00 0.00
0.00 0.00 0.00 0.00 0.00 0.00 0.00 0.00 0.00 0.00 0.00 0.00 0.00 0.00 0.00 0.00 0.00 0.00 0.00 0.00 0.00 0.00 0.00 0.00 0.00 0.00 0.00 0.00 0.00 0.00 0.00 0.00 0.00 0.00 0.00 0.00 0.00 0.00 0.00 0.00 0.00 0.00 0.00 0.00 0.00 0.00 0.00 0.00 0.00
0.01 0.01 0.00 0.00 0.00 0.00 0.00 0.00 0.00 0.00 0.00 0.00 0.00 0.00 0.00 0.00 0.00 0.00 0.00 0.00 0.00 0.00 0.00 0.00 0.00 0.00 0.00 0.00 0.00 0.00 0.00 0.00 0.00 0.00 0.00 0.00 0.00 0.00 0.00 0.00 0.00 0.00 0.00 0.00 0.00 0.00 0.00 0.00 0.00
0.00 0.01 0.00 0.00 0.00 0.00 0.00 0.00 0.00 0.00 0.00 0.00 0.00 0.00 0.00 0.00 0.00 0.00 0.00 0.00 0.00 0.00 0.00 0.00 0.00 0.00 0.00 0.00 0.00 0.00 0.00 0.00 0.00 0.00 0.00 0.00 0.00 0.00 0.00 0.00 0.00 0.00 0.00 0.00 0.00 0.00 0.00 0.00 0.00
0.01 0.00 0.00 0.00 0.00 0.00 0.00 0.00 0.00 0.00 0.00 0.00 0.00 0.00 0.00 0.00 0.00 0.00 0.00 0.00 0.00 0.00 0.00 0.00 0.00 0.00 0.00 0.04 0.00 0.00 0.00 0.00 0.00 0.00 0.00 0.00 0.00 0.00 0.00 0.00 0.00 0.00 0.00 0.00 0.00 0.00 0.00 0.00 0.00
0.00 0.01 0.00 0.00 0.00 0.00 0.00 0.00 0.00 0.00 0.00 0.00 0.00 0.00 0.00 0.00 0.00 0.00 0.00 0.00 0.00 0.00 0.00 0.00 0.00 0.00 0.00 0.02 0.00 0.00 0.00 0.00 0.00 0.00 0.00 0.00 0.00 0.01 0.02 0.03 0.02 0.00 0.00 0.00 0.01 0.00 0.00 0.00 0.01
0.00 0.00 0.00 0.00 0.00 0.00 0.00 0.00 0.00 0.00 0.00 0.00 0.00 0.00 0.00 0.00 0.00 0.00 0.00 0.00 0.00 0.00 0.00 0.00 0.00 0.00 0.00 0.00 0.00 0.00 0.00 0.00 0.00 0.00 0.00 0.00 0.00 0.00 0.01 0.02 0.02 0.00 0.01 0.02 0.04 0.01 0.00 0.01 0.03
0.00 0.00 0.00 0.00 0.00 0.00 0.00 0.00 0.00 0.00 0.00 0.00 0.00 0.00 0.00 0.00 0.00 0.00 0.00 0.00 0.00 0.00 0.00 0.00 0.00 0.00 0.00 0.00 0.00 0.00 0.00 0.00 0.00 0.00 0.00 0.00 0.00 0.01 0.00 0.00 0.00 0.04 0.09 0.03 0.02 0.02 0.08 0.01 0.01
0.00 0.00 0.00 0.00 0.00 0.00 0.00 0.00 0.00 0.00 0.00 0.00 0.00 0.00 0.00 0.00 0.00 0.00 0.00 0.00 0.00 0.00 0.00 0.00 0.00 0.00 0.00 0.00 0.00 0.00 0.00 0.00 0.00 0.00 0.00 0.00 0.00 0.00 0.03 0.05 0.11 0.06 0.03 0.03 0.07 0.02 0.06 0.03 0.00
0.00 0.00 0.00 0.00 0.00 0.00 0.00 0.00 0.00 0.00 0.00 0.00 0.00 0.00 0.00 0.00 0.00 0.00 0.00 0.00 0.00 0.00 0.00 0.00 0.00 0.00 0.00 0.00 0.00 0.00 0.00 0.00 0.00 0.02 0.04 0.02 0.02 0.03 0.12 0.20 0.17 0.04 0.01 0.01 0.02 0.15 0.32 0.25 0.05
0.00 0.00 0.00 0.00 0.00 0.00 0.00 0.00 0.00 0.00 0.00 0.00 0.00 0.00 0.00 0.00 0.00 0.00 0.00 0.00 0.00 0.00 0.00 0.00 0.00 0.00 0.00 0.00 0.00 0.00 0.00 0.00 0.00 0.10 0.02 0.03 0.05 0.16 0.34 0.32 0.12 0.15 0.15 0.03 0.04 0.09 0.10 0.07 0.00
0.00 0.00 0.00 0.00 0.00 0.00 0.00 0.00 0.00 0.00 0.00 0.00 0.00 0.00 0.00 0.00 0.00 0.00 0.00 0.00 0.00 0.00 0.00 0.00 0.00 0.00 0.00 0.00 0.00 0.00 0.02 0.01 0.00 0.02 0.12 0.05 0.03 0.06 0.07 0.12 0.04 0.08 0.07 0.00 0.02 0.05 0.03 0.00 0.00
0.00 0.00 0.00 0.00 0.00 0.00 0.00 0.00 0.00 0.00 0.00 0.00 0.00 0.00 0.00 0.00 0.00 0.00 0.00 0.00 0.00 0.00 0.00 0.00 0.00 0.00 0.00 0.00 0.00 0.00 0.03 0.09 0.09 0.05 0.05 0.05 0.04 0.01 0.06 0.04 0.06 0.04 0.01 0.00 0.03 0.00 0.00 0.00 0.08
0.00 0.00 0.00 0.00 0.00 0.00 0.00 0.00 0.00 0.00 0.00 0.00 0.00 0.00 0.00 0.00 0.00 0.00 0.00 0.00 0.00 0.00 0.01 0.01 0.02 0.00 0.00 0.01 0.01 0.00 0.01 0.03 0.03 0.04 0.02 0.05 0.17 0.01 0.03 0.07 0.04 0.02 0.00 0.00 0.00 0.00 0.00 0.01 0.02
0.00 0.00 0.00 0.00 0.00 0.00 0.00 0.00 0.00 0.00 0.00 0.00 0.00 0.00 0.00 0.00 0.00 0.00 0.00 0.00 0.00 0.00 0.00 0.00 0.04 0.06 0.00 0.01 0.02 0.01 0.01 0.01 0.00 0.01 0.07 0.03 0.05 0.00 0.01 0.00 0.00 0.00 0.00 0.00 0.00 0.00 0.00 0.00 0.05
0.00 0.00 0.00 0.00 0.00 0.00 0.00 0.00 0.00 0.00 0.00 0.00 0.00 0.00 0.00 0.00 0.00 0.00 0.00 0.00 0.00 0.00 0.00 0.00 0.08 0.11 0.02 0.00 0.00 0.00 0.00 0.00 0.02 0.00 0.01 0.00 0.00 0.00 0.00 0.00 0.00 0.00 0.00 0.00 0.00 0.00 0.00 0.00 0.00
0.00 0.00 0.00 0.00 0.00 0.00 0.00 0.00 0.00 0.00 0.00 0.00 0.00 0.00 0.00 0.00 0.00 0.00 0.00 0.00 0.00 0.00 0.00 0.00 0.03 0.15 0.07 0.00 0.00 0.00 0.00 0.00 0.00 0.02 0.03 0.01 0.00 0.00 0.00 0.00 0.00 0.00 0.00 0.00 0.00 0.00 0.00 0.00 0.00
0.00 0.00 0.00 0.00 0.00 0.00 0.00 0.00 0.00 0.00 0.00 0.00 0.00 0.00 0.00 0.00 0.00 0.00 0.00 0.00 0.00 0.00 0.00 0.00 0.00 0.01 0.04 0.00 0.00 0.00 0.00 0.00 0.00 0.01 0.01 0.00 0.00 0.00 0.00 0.00 0.00 0.00 0.00 0.00 0.00 0.00 0.00 0.00 0.00
0.00 0.00 0.00 0.00 0.00 0.00 0.00 0.00 0.00 0.00 0.00 0.00 0.00 0.00 0.00 0.00 0.00 0.00 0.00 0.00 0.00 0.00 0.00 0.00 0.00 0.00 0.00 0.00 0.00 0.00 0.00 0.00 0.00 0.00 0.00 0.00 0.00 0.00 0.00 0.00 0.00 0.00 0.00 0.00 0.00 0.00 0.00 0.00 0.00
0.00 0.00 0.00 0.00 0.00 0.00 0.00 0.00 0.00 0.00 0.00 0.00 0.00 0.00 0.00 0.00 0.00 0.00 0.00 0.00 0.00 0.00 0.00 0.00 0.00 0.00 0.00 0.00 0.00 0.00 0.00 0.00 0.00 0.00 0.00 0.00 0.00 0.00 0.00 0.00 0.00 0.00 0.00 0.00 0.00 0.00 0.00 0.00 0.00
0.00 0.00 0.00 0.00 0.00 0.00 0.00 0.00 0.00 0.00 0.00 0.00 0.00 0.00 0.00 0.00 0.00 0.00 0.00 0.00 0.00 0.00 0.00 0.00 0.00 0.00 0.00 0.00 0.00 0.00 0.00 0.00 0.00 0.00 0.00 0.00 0.00 0.00 0.00 0.00 0.00 0.00 0.00 0.00 0.00 0.00 0.00 0.00 0.00
MSLP
1005.98 1006.29 1006.63 1007.11 1007.70 1007.66 1008.15 1008.17 1007.51 1007.55 1007.73 1007.94 1008.15 1008.84 1009.96 1010.90 1011.33 1012.38 1011.99 1011.92 1012.00 1012.25 1012.23 1012.25 1012.22 1012.22 1012.35 1012.44 1012.41 1012.39 1012.40 1012.44 1012.41 1012.46 1012.46 1012.44 1012.76 1010.10 1013.85 1013.34 1014.41 1014.83 1015.24 1015.36 1015.48 1015.65 1015.68 1015.75 1015.76
1006.10 1006.52 1006.67 1006.87 1007.73 1008.36 1008.44 1007.95 1007.94 1007.78 1007.87 1007.89 1008.42 1009.19 1010.01 1011.09 1011.41 1011.93 1012.21 1012.16 1012.12 1012.46 1012.60 1012.54 1012.43 1012.46 1012.60 1012.58 1012.61 1012.64 1012.59 1012.75 1012.91 1013.03 1013.01 1012.91 1013.15 1013.51 1013.94 1014.41 1014.91 1015.50 1015.83 1015.75 1015.74 1015.79 1015.88 1015.93 1016.01
1005.72 1005.73 1006.58 1006.90 1007.92 1008.36 1008.37 1008.29 1008.19 1007.93 1007.72 1007.83 1008.84 1009.48 1010.24 1011.40 1011.77 1011.97 1012.03 1012.32 1012.46 1012.83 1012.84 1012.77 1012.78 1012.84 1012.82 1012.76 1012.78 1012.79 1012.88 1013.14 1013.35 1013.49 1013.53 1013.50 1013.55 1013.80 1014.10 1014.89 1015.60 1015.87 1015.96 1015.73 1015.84 1016.02 1016.04 1016.15 1016.26
1005.33 1006.03 1006.68 1007.12 1008.00 1007.89 1007.95 1008.28 1008.20 1008.09 1008.17 1008.42 1009.05 1010.07 1010.83 1011.15 1011.77 1011.94 1012.33 1012.70 1012.98 1013.07 1013.07 1013.02 1013.07 1013.14 1013.14 1013.09 1013.05 1013.12 1013.29 1013.54 1013.79 1013.96 1014.12 1014.11 1014.28 1014.48 1014.87 1015.40 1015.65 1015.62 1016.01 1015.87 1015.97 1016.19 1016.24 1016.46 1016.68
1005.70 1006.24 1007.24 1007.82 1007.91 1007.83 1007.87 1007.96 1008.40 1008.44 1008.75 1009.17 1009.41 1010.91 1011.62 1011.78 1011.80 1012.25 1012.79 1013.14 1013.23 1013.39 1013.34 1013.29 1013.25 1013.34 1013.36 1013.36 1013.43 1013.56 1013.66 1013.94 1014.24 1014.42 1014.57 1014.68 1014.86 1015.12 1015.30 1015.56 1015.66 1015.56 1015.80 1015.99 1016.29 1016.47 1016.60 1016.85 1017.06
1005.93 1006.80 1007.87 1008.20 1008.00 1007.83 1007.77 1008.01 1008.30 1008.55 1009.14 1009.69 1010.29 1011.22 1012.32 1012.35 1012.28 1012.80 1013.16 1013.45 1013.54 1013.73 1013.64 1013.50 1013.41 1013.51 1013.57 1013.72 1013.82 1013.96 1014.11 1014.35 1014.60 1014.71 1014.83 1015.15 1015.37 1015.51 1015.74 1015.88 1015.72 1015.85 1016.05 1016.32 1016.63 1016.77 1016.97 1017.17 1017.24
1006.04 1007.12 1008.02 1007.92 1007.98 1007.83 1007.70 1007.88 1008.37 1008.70 1009.15 1009.77 1010.26 1011.59 1012.67 1012.91 1012.88 1013.20 1013.48 1013.80 1013.95 1013.86 1013.98 1013.89 1013.82 1013.80 1013.83 1014.00 1014.15 1014.32 1014.56 1014.74 1014.82 1014.96 1015.09 1015.29 1015.53 1015.76 1015.98 1016.08 1016.10 1015.90 1016.10 1016.64 1016.82 1017.10 1017.29 1017.36 1017.44
1005.88 1006.75 1007.83 1007.80 1007.76 1007.73 1007.71 1008.04 1008.59 1008.69 1009.20 1009.54 1009.95 1011.67 1012.57 1012.82 1013.04 1013.44 1013.82 1014.11 1014.25 1014.30 1014.28 1014.30 1014.30 1014.27 1014.31 1014.38 1014.43 1014.55 1014.81 1014.96 1015.05 1015.21 1015.44 1015.55 1015.70 1015.82 1016.05 1016.24 1016.52 1016.48 1016.57 1016.63 1016.92 1017.23 1017.45 1017.47 1017.50
1005.52 1006.97 1007.56 1007.16 1007.08 1007.29 1007.52 1008.15 1008.56 1008.72 1009.10 1009.59 1010.08 1010.95 1011.65 1012.47 1013.09 1013.69 1014.17 1014.40 1014.49 1014.55 1014.64 1014.54 1014.64 1014.69 1014.69 1014.68 1014.63 1014.80 1014.95 1015.22 1015.40 1015.45 1015.65 1015.90 1016.13 1016.22 1016.53 1016.47 1016.49 1016.61 1016.67 1016.85 1017.06 1017.30 1017.43 1017.52 1017.60
1005.63 1006.63 1006.74 1006.53 1006.33 1006.67 1007.37 1007.81 1008.39 1009.02 1009.49 1010.22 1010.78 1011.36 1011.96 1012.68 1013.29 1013.81 1014.15 1014.38 1014.52 1014.55 1014.64 1014.72 1014.74 1014.87 1014.86 1014.78 1014.96 1015.21 1015.36 1015.45 1015.74 1015.80 1016.06 1016.24 1016.40 1016.63 1016.72 1016.70 1016.65 1016.62 1016.76 1016.96 1017.01 1017.17 1017.29 1017.45 1017.81
1005.70 1006.35 1006.17 1006.14 1005.93 1006.20 1007.14 1007.87 1008.19 1008.94 1009.79 1010.05 1010.66 1011.64 1012.22 1012.79 1013.40 1013.81 1014.15 1014.32 1014.42 1014.51 1014.61 1014.69 1014.93 1014.93 1014.98 1014.94 1015.26 1015.50 1015.68 1015.78 1015.95 1016.13 1016.29 1016.37 1016.49 1016.58 1016.70 1016.85 1016.93 1016.97 1017.00 1017.11 1017.20 1017.28 1017.38 1017.53 1017.69
1005.78 1006.14 1006.03 1005.98 1005.95 1006.42 1006.89 1007.62 1008.28 1008.59 1008.92 1009.60 1010.46 1011.12 1012.01 1012.66 1013.10 1013.34 1013.71 1014.06 1014.28 1014.42 1014.43 1014.68 1014.83 1014.98 1015.08 1015.10 1015.29 1015.54 1015.72 1015.85 1015.96 1016.19 1016.37 1016.64 1016.81 1016.81 1016.90 1017.01 1017.03 1017.07 1017.13 1017.26 1017.27 1017.42 1017.45 1017.41 1017.44
1006.16 1006.45 1006.44 1006.22 1006.17 1006.37 1006.71 1007.28 1007.79 1008.71 1008.95 1009.77 1010.74 1011.43 1011.94 1012.34 1012.77 1013.09 1013.50 1013.90 1014.08 1014.23 1014.26 1014.42 1014.66 1015.02 1015.09 1015.27 1015.41 1015.56 1015.74 1015.78 1015.87 1015.94 1016.18 1016.45 1016.71 1016.94 1017.04 1017.06 1017.11 1017.20 1017.30 1017.38 1017.37 1017.31 1017.30 1017.25 1017.29
1006.64 1006.63 1006.84 1006.80 1006.84 1006.99 1007.27 1007.92 1007.94 1008.98 1009.13 1009.97 1010.72 1011.32 1011.79 1012.19 1012.43 1012.89 1013.29 1013.67 1013.81 1013.83 1014.07 1014.27 1014.58 1014.74 1015.04 1015.38 1015.46 1015.55 1015.63 1015.75 1015.91 1016.06 1016.04 1016.22 1016.39 1016.64 1016.79 1016.89 1017.00 1017.02 1017.04 1017.16 1017.30 1017.35 1017.29 1017.24 1017.29
1006.91 1007.09 1007.11 1007.13 1007.07 1007.38 1007.48 1008.38 1008.57 1008.73 1009.17 1010.01 1010.65 1011.15 1011.47 1011.70 1012.19 1012.29 1012.30 1012.85 1013.18 1013.32 1013.65 1014.06 1014.39 1014.50 1014.98 1015.20 1015.33 1015.59 1015.69 1015.79 1015.87 1015.92 1016.02 1016.11 1016.36 1016.59 1016.69 1016.75 1016.84 1016.66 1016.79 1017.00 1017.15 1017.17 1017.34 1017.38 1017.12
1007.29 1007.55 1007.59 1007.17 1006.98 1007.17 1007.53 1008.42 1008.73 1009.11 1009.49 1010.02 1010.45 1010.88 1011.23 1011.43 1011.44 1011.69 1011.88 1012.30 1012.75 1013.19 1013.49 1013.92 1014.26 1014.49 1014.77 1015.12 1015.28 1015.60 1015.77 1015.90 1015.94 1015.98 1015.96 1015.96 1016.04 1016.21 1016.45 1016.62 1016.59 1016.44 1016.64 1016.85 1017.06 1017.26 1017.33 1017.21 1017.14
1008.01 1007.98 1007.85 1007.34 1007.20 1007.30 1007.87 1008.61 1008.92 1009.13 1009.60 1010.18 1010.28 1010.53 1010.81 1011.20 1011.43 1011.47 1011.59 1011.90 1012.28 1012.60 1013.36 1013.81 1014.06 1014.37 1014.64 1014.97 1015.29 1015.56 1015.69 1015.83 1015.91 1016.00 1016.02 1016.04 1016.07 1016.11 1016.25 1016.19 1016.14 1016.19 1016.40 1016.62 1016.85 1017.16 1017.27 1017.12 1016.94
1008.13 1008.07 1007.85 1007.46 1007.31 1007.45 1008.05 1008.63 1009.02 1009.25 1009.57 1009.94 1010.31 1010.58 1010.70 1010.75 1010.65 1011.00 1011.30 1011.69 1012.12 1012.56 1013.09 1013.63 1014.03 1014.33 1014.77 1015.10 1015.39 1015.67 1015.73 1015.77 1015.87 1015.91 1015.97 1015.99 1016.03 1016.10 1016.25 1016.32 1016.25 1016.26 1016.55 1016.66 1016.87 1017.01 1017.09 1016.84 1016.95
1007.46 1007.65 1007.37 1006.97 1006.95 1007.46 1008.10 1008.55 1009.13 1009.33 1009.61 1009.98 1010.37 1010.42 1010.47 1010.50 1010.31 1010.77 1011.04 1011.48 1012.10 1012.60 1013.03 1013.35 1013.86 1014.25 1014.72 1015.32 1015.68 1015.76 1015.77 1015.81 1015.80 1015.77 1015.79 1015.80 1015.82 1015.90 1016.01 1016.21 1016.14 1016.06 1016.39 1016.58 1016.67 1016.76 1016.92 1016.87 1016.96
1007.75 1007.71 1007.35 1006.91 1007.07 1007.55 1008.40 1008.48 1008.73 1009.27 1009.22 1009.31 1009.61 1009.95 1009.96 1010.24 1010.26 1010.45 1010.74 1011.11 1011.65 1012.10 1012.63 1013.14 1013.51 1014.02 1014.47 1014.83 1015.23 1015.44 1015.48 1015.52 1015.55 1015.55 1015.56 1015.52 1015.65 1015.77 1015.89 1015.95 1016.05 1016.15 1016.23 1016.40 1016.46 1016.57 1016.72 1016.70 1016.69
1007.81 1007.80 1007.56 1007.59 1007.62 1008.11 1008.34 1008.59 1009.15 1009.17 1009.12 1009.13 1009.11 1009.05 1009.19 1009.54 1010.17 1010.42 1010.73 1010.89 1011.40 1011.93 1012.24 1012.60 1013.21 1013.68 1014.03 1014.52 1014.97 1015.29 1015.47 1015.56 1015.64 1015.71 1015.72 1015.74 1015.60 1015.58 1015.69 1015.64 1015.67 1015.90 1016.06 1016.19 1016.27 1016.24 1016.28 1016.45 1016.48
1007.33 1006.78 1007.44 1008.03 1008.71 1009.37 1009.51 1010.05 1009.12 1009.17 1008.95 1008.67 1008.54 1008.62 1008.62 1008.96 1009.37 1009.79 1010.20 1010.63 1010.97 1011.46 1011.89 1012.26 1012.79 1013.33 1013.62 1014.07 1014.60 1014.81 1015.09 1015.33 1015.50 1015.49 1015.51 1015.68 1015.61 1015.46 1015.36 1015.40 1015.50 1015.80 1016.02 1016.12 1016.09 1016.07 1016.21 1016.35 1016.43
1006.64 1006.86 1007.73 1008.41 1009.65 1010.19 1010.44 1010.62 1009.00 1008.73 1008.43 1007.97 1007.83 1008.11 1008.25 1008.41 1008.67 1009.04 1009.65 1009.84 1010.23 1010.96 1011.40 1011.88 1012.52 1013.30 1013.51 1013.71 1014.04 1014.63 1014.92 1015.00 1015.18 1015.44 1015.56 1015.68 1015.45 1015.46 1015.64 1015.60 1015.82 1016.15 1016.24 1016.29 1016.26 1016.22 1016.22 1016.13 1016.25
1006.27 1007.09 1008.40 1009.51 1010.61 1011.58 1011.09 1010.98 1009.36 1008.40 1007.54 1007.05 1006.70 1006.81 1007.17 1007.45 1007.56 1008.02 1008.77 1009.51 1009.99 1010.47 1011.10 1011.56 1012.33 1012.80 1013.24 1013.52 1013.83 1014.19 1014.63 1014.77 1014.91 1015.15 1015.64 1015.79 1015.79 1015.75 1015.57 1015.63 1015.84 1016.05 1016.21 1016.33 1016.39 1016.31 1016.25 1016.22 1016.27
1006.37 1007.91 1009.76 1011.16 1011.99 1011.98 1011.33 1010.94 1008.54 1007.20 1006.49 1006.17 1006.05 1006.11 1006.21 1006.36 1006.95 1007.57 1008.24 1009.03 1009.68 1010.14 1010.58 1011.20 1012.02 1012.51 1012.95 1013.27 1013.54 1013.88 1014.14 1014.48 1014.63 1014.83 1015.18 1015.49 1015.70 1015.80 1015.81 1015.93 1016.15 1016.26 1016.26 1016.19 1016.24 1016.43 1016.53 1016.47 1016.49
1006.75 1008.05 1009.74 1011.47 1012.63 1012.08 1011.36 1010.02 1007.20 1005.87 1005.53 1005.39 1005.58 1005.68 1005.83 1006.15 1006.47 1006.88 1007.44 1008.27 1009.07 1009.57 1010.07 1010.69 1011.47 1011.95 1012.48 1013.01 1013.29 1013.51 1013.77 1014.09 1014.21 1014.42 1014.67 1014.92 1015.12 1015.32 1015.57 1015.78 1015.90 1016.11 1016.21 1016.23 1016.16 1016.39 1016.57 1016.58 1016.66
1006.43 1007.76 1009.03 1011.08 1012.75 1012.42 1011.19 1009.12 1006.84 1005.42 1005.31 1005.36 1005.28 1005.49 1005.52 1005.76 1006.18 1006.97 1007.53 1007.94 1008.46 1009.20 1009.65 1010.22 1011.03 1011.52 1012.03 1012.54 1012.91 1013.23 1013.49 1013.67 1013.83 1014.07 1014.31 1014.62 1014.89 1015.20 1015.47 1015.73 1015.94 1016.09 1016.25 1016.34 1016.54 1016.75 1016.83 1016.92 1016.95
1005.03 1006.55 1008.87 1010.90 1012.30 1012.51 1011.27 1009.78 1007.87 1005.78 1005.14 1005.05 1005.13 1005.14 1005.41 1005.71 1006.39 1006.80 1007.08 1007.46 1007.95 1008.44 1009.11 1009.88 1010.48 1010.92 1011.33 1011.97 1012.61 1012.97 1013.14 1013.24 1013.39 1013.77 1014.22 1014.60 1014.95 1015.26 1015.63 1016.04 1016.28 1016.41 1016.47 1016.59 1016.78 1016.96 1017.05 1017.11 1017.24
1005.36 1006.67 1008.73 1010.61 1011.70 1012.12 1011.66 1009.51 1006.53 1005.54 1004.94 1004.78 1004.74 1004.76 1005.19 1005.58 1006.17 1006.44 1006.91 1007.23 1007.66 1008.16 1008.86 1009.47 1010.07 1010.45 1010.91 1011.52 1012.15 1012.69 1013.08 1013.15 1013.43 1013.71 1014.19 1014.51 1014.80 1015.10 1015.48 1015.87 1016.23 1016.48 1016.66 1016.94 1017.22 1017.37 1017.41 1017.38 1017.42
1004.59 1006.09 1007.72 1010.10 1011.74 1011.98 1010.97 1008.28 1005.72 1005.25 1004.85 1004.68 1004.44 1004.81 1005.05 1005.63 1006.08 1006.36 1006.70 1007.07 1007.62 1008.00 1008.71 1009.14 1009.74 1010.24 1010.59 1011.18 1011.80 1012.47 1012.85 1013.12 1013.41 1013.70 1014.01 1014.32 1014.66 1015.24 1015.72 1016.16 1016.42 1016.63 1016.76 1016.80 1016.93 1017.15 1017.31 1017.41 1017.43
Thickness
5831 5828 5821 5805 5770 5762 5742 5749 5769 5763 5763 5773 5778 5768 5754 5750 5747 5730 5760 5764 5764 5763 5760 5759 5760 5761 5760 5757 5759 5760 5761 5762 5763 5762 5762 5762 5758 5752 5749 5752 5751 5750 5749 5751 5752 5752 5752 5753 5754
5832 5825 5815 5796 5757 5737 5737 5762 5752 5761 5770 5779 5776 5768 5757 5745 5757 5754 5755 5763 5764 5762 5760 5760 5761 5760 5757 5758 5759 5760 5761 5761 5759 5756 5757 5759 5755 5751 5749 5749 5747 5745 5745 5749 5751 5752 5751 5752 5753
5837 5832 5801 5776 5755 5743 5742 5757 5760 5768 5778 5778 5766 5769 5762 5749 5757 5758 5763 5763 5762 5760 5759 5759 5757 5757 5758 5760 5761 5762 5761 5759 5756 5755 5754 5754 5753 5750 5749 5745 5741 5741 5744 5749 5750 5750 5751 5752 5754
5833 5818 5802 5768 5758 5769 5765 5762 5768 5767 5773 5776 5770 5756 5764 5768 5761 5764 5764 5762 5761 5760 5758 5756 5756 5757 5758 5760 5761 5761 5760 5757 5753 5751 5749 5748 5747 5744 5742 5741 5738 5741 5743 5747 5750 5751 5752 5751 5752
5829 5810 5775 5766 5765 5774 5775 5775 5768 5762 5764 5765 5769 5748 5749 5763 5768 5765 5761 5761 5760 5759 5756 5756 5757 5757 5758 5759 5759 5758 5757 5754 5751 5748 5745 5740 5739 5739 5739 5739 5741 5744 5745 5747 5749 5751 5751 5751 5751
5811 5803 5764 5750 5766 5775 5779 5779 5771 5766 5763 5762 5757 5751 5746 5762 5765 5763 5763 5760 5759 5757 5755 5756 5757 5757 5757 5757 5756 5755 5755 5752 5749 5749 5744 5740 5737 5739 5738 5738 5741 5744 5747 5748 5749 5750 5751 5750 5752
5809 5787 5768 5771 5763 5769 5776 5786 5769 5763 5762 5758 5766 5742 5747 5755 5764 5764 5762 5760 5758 5756 5755 5755 5756 5756 5755 5755 5754 5753 5752 5751 5750 5749 5746 5744 5742 5739 5739 5739 5741 5744 5746 5749 5750 5750 5750 5751 5753
5816 5800 5779 5776 5766 5764 5781 5780 5776 5769 5761 5775 5773 5743 5740 5757 5765 5764 5761 5759 5758 5756 5755 5754 5754 5753 5753 5753 5752 5752 5752 5751 5750 5749 5747 5747 5746 5745 5745 5743 5743 5747 5751 5754 5753 5752 5752 5753 5754
5833 5784 5771 5782 5779 5778 5789 5771 5781 5780 5770 5772 5773 5765 5767 5767 5765 5760 5756 5756 5756 5756 5756 5755 5753 5753 5753 5752 5752 5752 5752 5751 5751 5751 5749 5748 5748 5748 5747 5750 5751 5751 5753 5753 5755 5754 5755 5756 5756
5815 5785 5791 5804 5805 5793 5792 5784 5778 5768 5765 5761 5761 5767 5767 5766 5762 5757 5755 5754 5755 5756 5757 5757 5755 5754 5754 5754 5754 5752 5752 5753 5752 5752 5751 5750 5750 5749 5748 5750 5752 5754 5755 5756 5757 5757 5758 5758 5755
5821 5795 5812 5810 5814 5814 5798 5789 5793 5772 5760 5767 5761 5761 5765 5764 5762 5760 5758 5758 5757 5758 5759 5760 5757 5757 5757 5757 5755 5753 5752 5752 5753 5752 5752 5753 5753 5753 5753 5753 5754 5756 5758 5759 5759 5759 5760 5759 5757
5808 5816 5817 5816 5820 5812 5802 5801 5789 5787 5780 5784 5777 5774 5768 5765 5765 5765 5762 5761 5761 5760 5761 5761 5760 5759 5759 5758 5758 5756 5755 5755 5755 5754 5754 5754 5754 5754 5756 5757 5758 5759 5760 5759 5761 5761 5761 5761 5760
5810 5811 5817 5820 5817 5816 5815 5801 5798 5791 5796 5789 5780 5774 5769 5768 5770 5771 5767 5766 5766 5763 5765 5764 5764 5762 5762 5761 5759 5758 5758 5759 5759 5761 5759 5759 5758 5758 5758 5758 5759 5759 5759 5760 5762 5763 5765 5765 5764
5814 5813 5810 5814 5811 5814 5804 5800 5804 5796 5801 5789 5779 5773 5773 5771 5772 5770 5768 5766 5767 5769 5768 5769 5766 5766 5764 5763 5762 5761 5762 5762 5762 5762 5763 5762 5762 5762 5762 5762 5762 5763 5763 5763 5763 5764 5765 5766 5765
5812 5801 5806 5809 5813 5808 5811 5790 5790 5805 5802 5789 5781 5777 5776 5776 5774 5774 5778 5773 5772 5774 5773 5772 5770 5769 5768 5766 5765 5763 5763 5764 5765 5765 5765 5764 5763 5763 5763 5765 5765 5768 5767 5765 5764 5765 5764 5765 5766
5802 5794 5779 5807 5815 5813 5808 5774 5796 5804 5798 5789 5786 5781 5778 5776 5779 5781 5783 5781 5778 5776 5774 5773 5774 5772 5771 5769 5767 5764 5764 5764 5764 5765 5766 5767 5768 5767 5766 5767 5768 5769 5768 5766 5765 5764 5764 5766 5767
5791 5779 5783 5795 5815 5811 5803 5781 5796 5802 5798 5790 5791 5787 5784 5781 5781 5785 5786 5785 5782 5780 5775 5773 5774 5773 5772 5771 5767 5766 5765 5765 5765 5765 5765 5766 5768 5768 5768 5769 5770 5771 5769 5768 5767 5765 5764 5765 5769
5782 5784 5789 5790 5808 5806 5795 5788 5794 5798 5796 5792 5789 5788 5786 5788 5790 5793 5793 5790 5786 5781 5777 5775 5773 5773 5771 5769 5766 5765 5764 5765 5765 5766 5766 5766 5767 5768 5767 5767 5769 5769 5768 5767 5766 5764 5765 5766 5767
5806 5798 5800 5809 5817 5806 5793 5790 5789 5796 5796 5791 5788 5788 5788 5789 5797 5795 5795 5793 5786 5780 5776 5775 5772 5772 5769 5765 5762 5763 5763 5764 5765 5766 5766 5768 5769 5768 5768 5768 5768 5768 5767 5767 5766 5766 5764 5764 5765
5800 5796 5798 5809 5819 5810 5790 5789 5796 5796 5797 5799 5798 5794 5796 5795 5796 5796 5795 5795 5789 5784 5779 5776 5774 5771 5769 5768 5766 5766 5766 5767 5767 5767 5767 5768 5767 5767 5766 5764 5767 5768 5767 5766 5767 5767 5764 5766 5767
5795 5790 5796 5799 5808 5804 5794 5783 5785 5798 5804 5804 5806 5810 5810 5804 5795 5795 5794 5796 5794 5787 5783 5780 5776 5772 5772 5770 5767 5767 5767 5767 5766 5766 5767 5768 5767 5768 5767 5768 5769 5768 5768 5767 5768 5768 5767 5763 5765
5789 5814 5811 5803 5789 5763 5786 5747 5782 5792 5796 5803 5808 5811 5813 5810 5807 5801 5798 5796 5796 5793 5789 5785 5780 5775 5775 5772 5768 5768 5765 5764 5766 5767 5768 5768 5767 5768 5769 5768 5769 5768 5767 5766 5767 5767 5766 5764 5760
5806 5818 5808 5803 5778 5775 5771 5756 5778 5797 5800 5806 5813 5814 5815 5816 5813 5809 5805 5805 5804 5800 5795 5790 5783 5775 5776 5775 5772 5767 5765 5766 5767 5766 5765 5765 5767 5767 5765 5766 5765 5763 5763 5763 5763 5763 5763 5763 5759
5824 5812 5793 5779 5767 5743 5766 5761 5774 5792 5807 5818 5827 5826 5825 5823 5825 5822 5817 5811 5807 5803 5798 5793 5784 5779 5778 5775 5773 5770 5766 5767 5766 5765 5761 5761 5761 5762 5763 5763 5762 5760 5759 5758 5758 5759 5760 5760 5757
5815 5790 5746 5746 5737 5742 5764 5759 5785 5815 5824 5831 5832 5831 5831 5835 5831 5826 5820 5814 5808 5804 5801 5797 5787 5782 5779 5776 5775 5773 5771 5769 5767 5766 5763 5762 5760 5759 5760 5760 5759 5758 5757 5757 5757 5756 5756 5756 5755
5803 5792 5753 5747 5735 5749 5767 5771 5802 5833 5841 5841 5841 5841 5841 5837 5837 5834 5829 5822 5815 5810 5806 5802 5793 5787 5782 5778 5777 5777 5775 5773 5773 5772 5770 5768 5767 5766 5764 5761 5760 5758 5757 5757 5758 5758 5756 5756 5755
5807 5789 5795 5748 5740 5746 5756 5788 5819 5837 5839 5838 5840 5841 5843 5842 5840 5835 5830 5826 5821 5813 5809 5805 5797 5793 5787 5783 5781 5779 5777 5776 5775 5774 5773 5771 5769 5766 5763 5761 5759 5756 5755 5754 5753 5751 5751 5751 5750
5825 5820 5782 5754 5749 5751 5753 5764 5780 5825 5839 5842 5841 5843 5845 5844 5838 5836 5834 5830 5826 5819 5814 5810 5804 5799 5793 5787 5783 5780 5778 5779 5780 5777 5772 5769 5767 5764 5760 5756 5754 5753 5752 5750 5748 5746 5746 5745 5744
5813 5799 5777 5767 5755 5737 5737 5762 5813 5828 5838 5841 5844 5849 5845 5843 5839 5839 5838 5835 5830 5823 5817 5811 5807 5803 5797 5792 5787 5782 5779 5780 5778 5775 5771 5769 5766 5763 5759 5755 5751 5748 5746 5743 5740 5738 5738 5738 5739
5828 5809 5794 5770 5766 5739 5744 5769 5838 5836 5841 5843 5847 5847 5849 5845 5842 5842 5840 5835 5828 5823 5817 5814 5808 5804 5801 5794 5789 5783 5780 5778 5775 5774 5772 5769 5764 5759 5753 5749 5746 5744 5743 5743 5742 5738 5736 5733 5732